[分享] 今日山本由伸

看板 Baseball
作者
時間
留言 54則留言,48人參與討論
推噓 43 ( 43推 0噓 11→ )
討論串 29
IP NP H HR R ER BB SO ERA 山本由伸 8.0 120 7 0 2 2 3 9 1.50 (15W-5L) 睽違三個多月,山本迎來本季第三次出戰樂天, 前兩次對戰分別取得了一勝與一完封和的成績。 賽前自身11連勝,歐牛與樂天僅1.5場勝差, 在本週天王三系列戰捍衛球隊勝利。 上週面對西武繳出八局無失分的好投,今天主投八局失2分,被敲出7支安打, 用球數120球,總計送出9次三振與3次保送,單場最快球速為 156 km/h。 一局上首名打者山﨑剛先頭安打,在戰術配合下推進至三壘, 面對打點王島内宏明,投出本場第一次保送,來到一三壘有人的局勢, 但山本隨即三振下位打者,化解失分危機。 一局下面對樂天先發投手岸孝之宗佑磨(6)掌握住內角偏高的變速球, 擊出右外野陽春全壘打,幫助歐牛先馳得點。 而Moya分別在四局、六局適時的安打,成功串連攻勢,為歐牛取得3:0的領先。 七局上,山本開局便投出連續四顆壞球保送,在以3球三振下位打者後, 遭到渡邊佳明一記直擊右外野全壘打牆的二壘安打,來到二三壘有人一出局。 接著再度以3球三振代打的田中貴也,但隨即遭到近期攻守俱佳的山﨑剛 帶出正好越過二壘手上空的適時安打,使樂天將比數追至2:3一分差。 八局上來到一壘有人兩出局時,茂木栄五郎掃出右外野邊線的二壘安打, 一壘上的岡島一路狂奔直衝本壘,安達了一迅速轉傳給若月健矢, 成功將跑者觸殺在本壘之前,瓦解樂天的得分機會。 九局上由平野佳壽關門成功守成,沒有再讓樂天越雷池一步。 終場樂天2:3歐力士,由伸收下本季的第15勝,將個人連勝場推進至12連勝, 防禦率由賽前的1.46上升至1.50 -- 有看過又帥又強的投手嗎?如果沒有,現在讓你看看。 https://i.imgur.com/Xnhu0Nz.gif
--
※ 發信站: 批踢踢實業坊(ptt.cc), 來自: 140.112.234.20 (臺灣) ※ 文章網址: https://www.ptt.cc/bbs/Baseball/M.1632557063.A.179.html
1Fmaimai2063: 小山本開心!09/25 16:04
2Fsesd: 炎上 09/25 16:04
3Fa23938554: 太扯了啦09/25 16:05
4Fcho840929: 失兩分不及格09/25 16:05
5Fa23938554: 天使收09/25 16:05
6Fhy654: 有失水準09/25 16:05
7Fjuicyfruit: 推山本 這場贏得很緊張!09/25 16:05
8Fosvaldo4040: 後面差點翻車XD09/25 16:05
9Faleximba2: 差一點就攻破山本了QQ09/25 16:06
好險守備幫忙 贏得很驚險啊!就像昨天也是差一點 今天反過來XD
10Fmbmh: 真的投的真放鬆09/25 16:06
11Fkindaichi21: 終於也有過15勝了09/25 16:06
12Frockroddick: 兩分 那就是不及格 09/25 16:06
13Fmaimai2063: 差點丟三分上頭條09/25 16:07
14Ftakeda0727: 今天不及格09/25 16:07
15Fiki912857: 失兩分 慘09/25 16:07
16Ffp737: 爆了爆了09/25 16:07
17Fiori9060920: 強09/25 16:07
18Fjoujima: 澤村賞穩了09/25 16:07
19Fsame60710: 今天被打爆了~09/25 16:07
20Fkarta2133295: 大爆炸09/25 16:08
21FAdagakiAki: 炸了,不及格 09/25 16:09
22Fjohann860801: 炎上,防禦率爆漲09/25 16:09
23Fo0991758566: MLB見 09/25 16:10
24Fdavid8840505: 防禦率暴漲0.0409/25 16:11
25Fckeleaf: 大炎上,上次沒失分被敲太多安5ch這樣說了XD09/25 16:12
26Fguns: 猜洋基簽走啦09/25 16:12
27Fckeleaf: 那個…對樂天那場不計完封計完投09/25 16:13
謝謝提醒!不過我想表達的是完投9局無失分啦XD 畢竟在定義上也稱完封(?
28FWasJohnWall: 還有兩年才滿25阿09/25 16:14
29Fosvaldo4040: 至少還要在日本三年吧w09/25 16:15
30Fckeleaf: 2023年8月滿25,看2024如何囉!09/25 16:15
31FZachBritton: 終於掉分了…09/25 16:18
32Fedayyuyu: 山本真的鬼…當今日本第一投(?09/25 16:23
33Fsleeeve: 大爆炸 慘 09/25 16:24
34Fknight714: 掉兩分……era炸裂了…09/25 16:25
35Fsleeeve: 澤村賞穩了嗎?09/25 16:26
36FAvis0909: 太帥了09/25 16:27
37Fhcastray: 八局掉兩分會上修era 真的強09/25 16:29
38Fkmwace: 我現在都看你文,搭配水管洋聯tv,省下3小時半時間09/25 16:29
謝謝支持!那我跟你說我喜歡發山本、宮城和千賀的今日文(不開放點單XD)
39Fpounil: 力挽狂瀾09/25 16:32
40FCorydoras: 推小由伸 09/25 16:35
41Falbus9768: 今天0分09/25 16:48
42FJIYUI: 簡單就是強投都喜歡啊XD 09/25 16:48
山本是真的很喜歡!宮城是一開始看著覺得投球很有意思,至於千賀的話其實我是更喜歡 他跟甲斐搭配的感覺! 因為會想好好看他們投球,就變成這樣子了XD
43Fmtyk10100: 澤村賞穩得不行 09/25 16:53
44Fc8121175: 由伸一族 09/25 16:55
45Fasdfzx: 賽揚穩了 09/25 17:17
46Fglim: 被打爆了 真慘 09/25 17:26
47Fchicktap: 新生代王牌 09/25 17:42
48Ftpcx2001: 推山本,狀況不好也還是很穩 09/25 18:57
49Fpazudora: 推由伸! 09/25 19:38
50FBeauNick: 用心打上比賽內容 給一個讚 09/25 19:46
51Fkarasumi: 澤村賞今年沒什麼對手了 09/25 19:58
52Fhuang6699: 推認真文 09/25 21:29
53FGiovinazzi99: 好文推 09/25 22:01
54Fcymtrex: 但可以先講結論嗎? 認真推 09/26 00:23
謝謝!不過結論就在最上面數據欄啊XD ※ 編輯: kkktj37 (180.217.251.197 臺灣), 09/26/2021 01:18:03

完整討論串

留言數 標題 作者 日期
14 [分享] 今日山本由伸 lrhn0289 2019/05/02 16:31:08
10 [分享] 今日山本由伸 lrhn0289 2019/05/09 21:40:20
13 [分享] 今日山本由伸 lrhn0289 2019/05/28 20:27:52
21 [分享] 今日山本由伸 lrhn0289 2019/09/08 15:45:01
58 [分享] 今日山本由伸 Makimywife 2020/07/12 14:49:48
0 [分享] 今日山本由伸 matthew90236 2020/07/12 14:52:00
12 [分享] 今日山本由伸 kiversonx17 2020/07/26 21:10:17
21 [分享] 今日山本由伸 world4849844 2020/09/22 20:41:34
4 Re: [分享] 今日山本由伸 rainfruit 2020/09/22 21:06:57
17 [分享] 今日山本由伸 world4849844 2020/10/20 20:31:57
32 Re: [分享] 今日山本由伸 Zuleta 2020/10/20 22:05:17
124 [分享] 今日山本由伸 cho840929 2021/04/01 19:48:01
11 Re: [分享] 今日山本由伸 AisinGioro 2021/04/01 21:18:29
36 [分享] 今日山本由伸 cho840929 2021/04/08 19:46:14
14 [分享] 今日山本由伸 cho840929 2021/04/21 19:52:03
186 [分享] 今日山本由伸 timsun105 2021/05/12 19:49:21
8 [分享] 今日山本由伸 cho840929 2021/05/28 20:25:24
21 [分享] 今日山本由伸 cho840929 2021/06/04 19:47:14
51 [分享] 今日山本由伸 cho840929 2021/06/11 19:59:24
33 [分享] 今日山本由伸 akiraje 2021/06/25 20:00:06
25 [分享] 今日山本由伸 cho840929 2021/07/09 20:10:59
41 [分享] 今日山本由伸 ghost069 2021/07/28 14:19:09
35 [分享] 今日山本由伸 jones210272 2021/08/04 21:40:44
65 [分享] 今日山本由伸 cho840929 2021/09/03 20:07:26
52 [分享] 今日山本由伸 kkktj37 2021/09/10 19:45:37
91 [分享] 今日山本由伸 kkktj37 2021/09/18 15:38:30
54 >> [分享] 今日山本由伸 kkktj37 2021/09/25 16:04:19
63 [分享] 今日山本由伸 kkktj37 2021/10/09 20:23:20
21 [分享] 今日山本由伸 kkktj37 2021/10/16 16:35:54

Baseball 看板熱門文章

32
47
102
128